EW1379 Weather Reports


Display with metric or nautical units.
time (UTC)temp
F
wind
direction
speed
MPH
gust
MPH
rain 1hr
in
rain 24hr
in
rain mn
in
humidity
%
barometer
mb
20260901045433 69 186 0.0 0.0 0.00 0.68 0.00 96 1015.3
20260901044916 69 186 0.0 0.0 0.00 0.68 0.00 96 1015.3
20260901044418 69 186 0.0 0.0 0.00 0.68 0.00 96 1015.4
20260901043912 69 186 0.0 0.0 0.00 0.68 0.00 96 1015.4
20260901043416 69 186 0.0 0.0 0.00 0.68 0.00 96 1015.4
20260901042940 69 186 0.0 0.0 0.00 0.68 0.00 96 1015.2
20260901042411 69 186 0.0 0.0 0.00 0.68 0.00 96 1015.0
20260901041940 69 186 0.0 0.0 0.00 0.68 0.00 96 1015.1
20260901041444 69 186 0.0 0.0 0.00 0.68 0.00 96 1015.5
20260901040923 69 186 0.0 0.0 0.00 0.68 0.00 96 1015.4
20260901040434 69 186 0.0 0.0 0.00 0.68 0.00 96 1015.4
20260901035916 69 186 0.0 0.0 0.00 0.68 0.68 96 1015.5
20260901035422 69 186 0.0 0.0 0.00 0.68 0.68 96 1015.6
20260901034935 69 186 0.0 0.0 0.00 0.68 0.68 96 1015.5
20260901034416 69 186 0.0 0.0 0.00 0.68 0.68 96 1015.4
20260901033925 69 186 0.0 0.0 0.00 0.68 0.68 96 1015.6
20260901033433 69 186 0.0 0.0 0.00 0.68 0.68 96 1015.8
20260901032913 69 186 0.0 0.0 0.00 0.68 0.68 96 1015.7
20260901032434 69 186 0.0 0.0 0.00 0.68 0.68 96 1015.6
20260901031936 69 186 0.0 0.0 0.00 0.68 0.68 96 1015.7
20260901031434 69 186 0.0 0.0 0.00 0.68 0.68 96 1015.9
20260901030937 69 186 0.0 0.0 0.00 0.68 0.68 96 1016.0
20260901030432 69 186 0.0 0.0 0.00 0.68 0.68 96 1015.8
20260901025917 69 186 0.0 0.0 0.00 0.68 0.68 96 1016.0
20260901025412 69 186 0.0 0.0 0.00 0.68 0.68 96 1016.0
20260901024916 69 186 0.0 0.0 0.00 0.68 0.68 96 1016.1
20260901024455 69 186 0.0 0.0 0.00 0.68 0.68 96 1016.2
20260901023911 69 186 0.0 0.0 0.00 0.68 0.68 96 1016.2
20260901023441 69 186 0.0 0.0 0.00 0.68 0.68 96 1016.1
20260901022915 69 186 0.0 0.0 0.00 0.68 0.68 96 1016.1
20260901022412 69 186 0.0 0.0 0.00 0.68 0.68 96 1016.2
20260901021914 69 186 0.0 0.0 0.00 0.68 0.68 96 1016.3
20260901021422 69 186 0.0 0.0 0.00 0.68 0.68 96 1016.2
20260901020920 69 186 0.0 0.0 0.00 0.68 0.68 96 1016.2
20260901020451 69 186 0.0 0.0 0.00 0.68 0.68 96 1016.3
20260901015940 69 186 0.0 0.0 0.00 0.68 0.68 96 1016.2
20260901015419 69 186 0.0 0.0 0.00 0.68 0.68 96 1016.3
20260901014931 69 186 0.0 0.0 0.00 0.68 0.68 96 1016.3
20260901014415 69 186 0.0 0.0 0.00 0.68 0.68 96 1016.3
20260901013913 69 186 0.0 0.0 0.01 0.68 0.68 96 1016.3
20260901013431 69 186 0.0 0.0 0.01 0.68 0.68 96 1016.3
20260901012917 69 186 0.0 0.0 0.01 0.68 0.68 96 1016.2
20260901012441 69 186 0.0 0.0 0.01 0.68 0.68 96 1016.1
20260901011909 69 186 0.0 0.0 0.01 0.68 0.68 96 1016.1
20260901011432 69 186 0.0 0.0 0.01 0.68 0.68 96 1016.0
20260901010916 69 199 0.0 2.0 0.01 0.68 0.68 96 1016.1
20260901010443 69 199 0.0 2.0 0.01 0.68 0.68 96 1016.1
20260901005931 69 199 0.0 1.0 0.01 0.68 0.68 96 1016.1
20260901005437 69 264 0.0 1.0 0.01 0.68 0.68 96 1016.1
20260901004923 69 273 0.0 0.0 0.01 0.68 0.68 96 1016.1
20260901004425 69 273 0.0 0.0 0.01 0.68 0.68 96 1016.1
20260901003915 69 273 0.0 0.0 0.00 0.67 0.67 96 1016.1
20260901003449 69 273 0.0 0.0 0.00 0.67 0.67 96 1016.0
20260901002935 69 273 0.0 0.0 0.00 0.67 0.67 96 1016.0
20260901002425 69 273 0.0 0.0 0.00 0.67 0.67 96 1016.1
20260901001921 69 273 0.0 0.0 0.00 0.67 0.67 96 1016.0
20260901001417 69 273 0.0 0.0 0.00 0.67 0.67 96 1016.0
20260901000942 69 273 0.0 0.0 0.00 0.67 0.67 96 1016.0
20260901000450 69 273 0.0 0.0 0.00 0.67 0.67 96 1016.1
20260831235938 69 273 0.0 0.0 0.00 0.67 0.67 96 1016.1
20260831235425 69 273 0.0 0.0 0.00 0.67 0.67 96 1016.1
20260831234925 69 273 0.0 0.0 0.00 0.67 0.67 96 1016.1
20260831234422 69 273 0.0 0.0 0.00 0.67 0.67 96 1016.1
20260831233938 69 273 0.0 0.0 0.00 0.67 0.67 96 1016.1
20260831233412 70 273 0.0 1.0 0.00 0.67 0.67 96 1016.1
20260831232908 69 273 0.0 5.0 0.00 0.67 0.67 96 1016.1
20260831232417 69 273 2.0 5.0 0.00 0.67 0.67 96 1016.0
20260831231908 69 133 0.0 0.0 0.01 0.67 0.67 95 1016.0
20260831231434 69 133 0.0 0.0 0.01 0.67 0.67 95 1015.9
20260831230922 69 133 0.0 0.0 0.01 0.67 0.67 95 1015.9
20260831230434 69 133 0.0 0.0 0.01 0.67 0.67 95 1016.0
20260831225917 69 133 0.0 0.0 0.01 0.67 0.67 95 1016.2
20260831225429 69 133 0.0 0.0 0.01 0.67 0.67 95 1016.2
20260831224944 69 133 0.0 0.0 0.01 0.67 0.67 95 1016.2
20260831224428 69 133 0.0 4.0 0.01 0.67 0.67 95 1016.2
20260831223922 69 133 2.0 4.0 0.01 0.67 0.67 95 1016.2
20260831223421 69 134 0.0 0.0 0.01 0.67 0.67 95 1016.2
20260831222927 69 134 0.0 0.0 0.01 0.67 0.67 95 1016.1
20260831222435 69 134 0.0 0.0 0.01 0.67 0.67 95 1016.2
20260831221921 69 134 0.0 0.0 0.00 0.66 0.66 95 1016.2
20260831221425 69 134 0.0 0.0 0.00 0.66 0.66 95 1016.3
20260831220954 70 134 0.0 0.0 0.00 0.66 0.66 95 1016.3
20260831220418 70 134 0.0 0.0 0.00 0.66 0.66 95 1016.3
20260831215945 70 134 0.0 3.0 0.00 0.66 0.66 95 1016.4
20260831215426 70 134 1.0 4.0 0.01 0.66 0.66 95 1016.4
20260831214919 70 134 1.0 4.0 0.02 0.66 0.66 95 1016.4
20260831214434 70 125 0.0 0.0 0.05 0.66 0.66 95 1016.4
20260831213934 70 125 0.0 1.0 0.05 0.66 0.66 95 1016.4
20260831213430 70 125 0.0 1.0 0.05 0.66 0.66 95 1016.4
20260831212938 70 125 0.0 1.0 0.06 0.66 0.66 95 1016.4
20260831212424 70 125 0.0 0.0 0.06 0.66 0.66 95 1016.4
20260831211914 70 125 0.0 0.0 0.06 0.66 0.66 95 1016.5
20260831211428 70 125 0.0 3.0 0.07 0.66 0.66 95 1016.6
20260831210934 70 125 0.0 3.0 0.07 0.66 0.66 95 1016.6
20260831210500 70 131 0.0 0.0 0.08 0.66 0.66 95 1016.5
20260831205917 70 132 0.0 0.0 0.08 0.65 0.65 95 1016.6
20260831205428 70 132 0.0 0.0 0.09 0.65 0.65 95 1016.5
20260831204912 70 132 0.0 0.0 0.08 0.64 0.64 95 1016.6
20260831204443 70 132 0.0 0.0 0.06 0.61 0.61 95 1016.6
20260831203915 70 132 0.0 0.0 0.06 0.61 0.61 95 1016.6
20260831203419 70 132 0.0 0.0 0.08 0.61 0.61 95 1016.7
20260831202931 70 132 0.0 2.0 0.10 0.60 0.60 95 1016.6
20260831202421 70 132 0.0 2.0 0.13 0.60 0.60 95 1016.6
20260831201928 70 132 0.0 0.0 0.14 0.60 0.60 95 1016.6
20260831201440 70 132 0.0 0.0 0.13 0.59 0.59 95 1016.7
20260831200918 70 132 0.0 0.0 0.13 0.59 0.59 95 1016.8
20260831200418 70 132 0.0 0.0 0.12 0.58 0.58 95 1016.9
20260831195913 70 132 0.0 0.0 0.11 0.56 0.56 95 1016.9
20260831194442 70 132 0.0 0.0 0.12 0.55 0.55 95 1017.2
20260831193949 70 132 0.0 0.0 0.13 0.54 0.54 95 1017.2
20260831193418 70 132 0.0 0.0 0.13 0.52 0.52 95 1017.4
20260831192937 70 132 0.0 0.0 0.13 0.50 0.50 95 1017.4
20260831192417 70 132 0.0 0.0 0.11 0.46 0.46 95 1017.4
20260831191917 70 132 0.0 0.0 0.11 0.46 0.46 95 1017.4
20260831191427 70 132 0.0 0.0 0.12 0.46 0.46 96 1017.4
20260831190929 70 132 0.0 0.0 0.13 0.46 0.46 96 1017.4
20260831190440 70 132 0.0 0.0 0.12 0.45 0.45 96 1017.3
20260831185918 70 132 0.0 0.0 0.12 0.45 0.45 96 1017.4
20260831185445 70 132 0.0 0.0 0.12 0.45 0.45 96 1017.4
20260831184928 70 132 0.0 0.0 0.11 0.44 0.44 95 1017.4
20260831184416 70 132 0.0 0.0 0.10 0.43 0.43 95 1017.3
20260831183924 70 132 0.0 0.0 0.08 0.41 0.41 95 1017.4
20260831183458 70 132 0.0 0.0 0.06 0.39 0.39 95 1017.5
20260831182921 70 132 0.0 2.0 0.03 0.36 0.36 96 1017.6
20260831182444 70 132 0.0 2.0 0.02 0.35 0.35 96 1017.7
20260831181923 70 132 0.0 2.0 0.03 0.35 0.35 96 1017.6
20260831181514 70 132 0.0 2.0 0.03 0.34 0.34 95 1017.6
20260831180935 70 132 0.0 1.0 0.03 0.33 0.33 96 1017.7
20260831180435 70 132 0.0 1.0 0.03 0.33 0.33 96 1017.7
20260831175911 70 132 0.0 1.0 0.03 0.33 0.33 96 1017.7
20260831175430 70 132 0.0 1.0 0.03 0.33 0.33 96 1017.8
20260831174918 70 132 0.0 4.0 0.03 0.33 0.33 96 1017.9
20260831174429 70 132 2.0 4.0 0.03 0.33 0.33 96 1017.8
20260831173958 70 132 1.0 4.0 0.03 0.33 0.33 96 1017.7
20260831173414 70 133 0.0 3.0 0.03 0.33 0.33 96 1017.8
20260831172948 70 133 0.0 3.0 0.03 0.33 0.33 96 1017.9
20260831172412 70 134 0.0 2.0 0.02 0.32 0.32 96 1018.0
20260831171926 70 134 0.0 3.0 0.02 0.31 0.31 96 1018.1
20260831171417 70 134 1.0 3.0 0.02 0.31 0.31 96 1018.2
20260831170913 70 134 0.0 1.0 0.01 0.30 0.30 96 1018.2
20260831170430 70 134 0.0 3.0 0.01 0.30 0.30 96 1018.2
20260831165917 70 134 0.0 3.0 0.01 0.31 0.30 96 1018.3
20260831165444 70 124 0.0 4.0 0.02 0.31 0.30 96 1018.2
20260831164929 70 125 1.0 4.0 0.02 0.31 0.30 96 1018.2
20260831164429 70 97 1.0 5.0 0.03 0.31 0.30 96 1018.3
20260831163940 70 94 0.0 6.0 0.03 0.31 0.30 96 1018.4
20260831163417 70 122 2.0 6.0 0.04 0.31 0.30 96 1018.4
20260831162911 69 134 2.0 6.0 0.04 0.31 0.30 96 1018.6
20260831162424 69 134 3.0 5.0 0.04 0.31 0.30 96 1018.7
20260831161911 69 123 1.0 4.0 0.04 0.30 0.29 96 1018.7
20260831161429 69 135 1.0 5.0 0.04 0.30 0.29 96 1018.7
20260831160958 69 133 1.0 5.0 0.05 0.30 0.29 96 1018.8
20260831160411 69 133 3.0 5.0 0.05 0.30 0.29 96 1018.8
20260831155921 69 124 3.0 4.0 0.05 0.30 0.29 96 1018.9
20260831155428 68 123 1.0 4.0 0.04 0.29 0.28 96 1018.8
20260831154939 68 123 3.0 4.0 0.04 0.28 0.27 96 1018.8
20260831154414 68 132 2.0 4.0 0.04 0.28 0.27 96 1018.8
20260831153942 68 134 2.0 4.0 0.06 0.28 0.27 96 1018.8
20260831153415 68 133 2.0 3.0 0.07 0.27 0.26 96 1018.9
20260831152933 68 133 0.0 4.0 0.09 0.27 0.26 95 1018.9
20260831152420 68 133 1.0 4.0 0.10 0.27 0.26 95 1019.0
20260831151929 68 133 0.0 3.0 0.09 0.26 0.25 95 1019.1
20260831151455 68 133 1.0 4.0 0.10 0.26 0.25 95 1019.0
20260831150921 68 132 0.0 4.0 0.11 0.25 0.24 95 1018.9
20260831150415 68 130 1.0 3.0 0.13 0.25 0.24 95 1018.9
20260831145941 68 130 0.0 3.0 0.15 0.25 0.24 96 1018.9
20260831145421 68 129 2.0 4.0 0.16 0.25 0.24 95 1018.8
20260831144923 67 129 2.0 4.0 0.16 0.24 0.23 95 1018.8
20260831144430 67 128 1.0 2.0 0.16 0.23 0.22 95 1018.7
20260831143915 67 128 0.0 3.0 0.17 0.22 0.21 95 1018.8
20260831143420 67 128 1.0 4.0 0.16 0.20 0.19 95 1018.8
20260831142915 67 131 2.0 4.0 0.15 0.18 0.17 95 1018.9
20260831142430 67 123 1.0 4.0 0.15 0.17 0.16 95 1018.7
20260831141921 67 114 0.0 7.0 0.16 0.17 0.16 95 1018.6
20260831141525 67 114 4.0 7.0 0.15 0.16 0.15 95 1018.4
20260831140913 67 126 2.0 4.0 0.13 0.14 0.13 95 1018.5
20260831140426 67 139 0.0 3.0 0.11 0.12 0.11 95 1018.6
20260831135914 67 139 0.0 3.0 0.09 0.10 0.09 95 1018.6
20260831135420 67 139 0.0 3.0 0.08 0.09 0.08 95 1018.6
20260831134940 67 139 0.0 0.0 0.07 0.08 0.07 95 1018.6
20260831134441 67 139 0.0 0.0 0.06 0.07 0.06 95 1018.6
20260831133938 67 139 0.0 3.0 0.04 0.05 0.04 95 1018.7
20260831133422 67 139 0.0 4.0 0.03 0.04 0.03 95 1018.8
20260831132927 67 139 2.0 4.0 0.02 0.03 0.02 95 1018.8
20260831132420 67 182 1.0 3.0 0.01 0.02 0.01 95 1018.8
20260831131924 67 195 0.0 0.0 0.00 0.01 0.00 95 1018.9
20260831131430 67 195 0.0 0.0 0.00 0.01 0.00 95 1018.9
20260831130942 67 133 0.0 0.0 0.00 0.01 0.00 95 1018.8
20260831130413 67 132 0.0 0.0 0.00 0.01 0.00 95 1018.8
20260831125928 67 133 0.0 0.0 0.00 0.01 0.00 95 1018.9
20260831125451 67 133 0.0 1.0 0.00 0.01 0.00 96 1018.8
20260831124936 67 133 0.0 4.0 0.00 0.01 0.00 96 1018.8
20260831124427 67 133 2.0 4.0 0.00 0.01 0.00 95 1018.8
20260831123937 67 133 2.0 5.0 0.00 0.01 0.00 96 1018.8
20260831123502 67 133 4.0 5.0 0.00 0.01 0.00 96 1018.6
20260831122923 66 98 3.0 5.0 0.00 0.01 0.00 96 1018.7
20260831122425 66 157 2.0 4.0 0.00 0.01 0.00 96 1018.7
20260831121928 66 159 0.0 0.0 0.00 0.01 0.00 96 1018.9
20260831121443 66 159 0.0 0.0 0.00 0.01 0.00 95 1019.0
20260831120925 65 159 0.0 0.0 0.00 0.01 0.00 95 1019.0
20260831120411 65 178 0.0 0.0 0.00 0.01 0.00 95 1018.9
20260831115935 64 206 0.0 0.0 0.00 0.01 0.00 95 1019.0
20260831115409 64 206 0.0 0.0 0.00 0.01 0.00 95 1019.1
20260831114913 64 211 0.0 0.0 0.00 0.01 0.00 95 1019.1
20260831113954 64 257 0.0 0.0 0.00 0.01 0.00 95 1019.0
20260831113438 64 257 0.0 0.0 0.00 0.01 0.00 95 1019.1
20260831112934 63 257 0.0 0.0 0.00 0.01 0.00 95 1019.1
20260831112425 63 257 0.0 0.0 0.00 0.01 0.00 95 1019.1
20260831111930 63 257 0.0 0.0 0.00 0.01 0.00 95 1019.0
20260831111422 63 257 0.0 0.0 0.00 0.01 0.00 95 1019.0
20260831110941 63 257 0.0 0.0 0.00 0.01 0.00 95 1019.1
20260831110450 63 257 0.0 0.0 0.00 0.01 0.00 95 1019.1
20260831105923 63 257 0.0 0.0 0.00 0.01 0.00 95 1019.1
20260831105431 63 257 0.0 0.0 0.00 0.01 0.00 94 1019.0
20260831104926 63 257 0.0 0.0 0.00 0.01 0.00 94 1018.9
20260831104432 63 257 0.0 0.0 0.00 0.01 0.00 95 1018.9
20260831103919 63 257 0.0 0.0 0.00 0.01 0.00 95 1018.8
20260831103426 63 257 0.0 0.0 0.00 0.01 0.00 95 1018.8
20260831102958 63 257 0.0 0.0 0.00 0.01 0.00 94 1018.7
20260831102414 62 257 0.0 0.0 0.00 0.01 0.00 95 1018.7
20260831101936 62 257 0.0 0.0 0.00 0.01 0.00 94 1018.8
20260831101412 62 257 0.0 0.0 0.00 0.01 0.00 94 1018.8
20260831100917 62 257 0.0 0.0 0.00 0.01 0.00 94 1018.9
20260831100428 62 257 0.0 0.0 0.00 0.01 0.00 94 1018.9
20260831095935 62 257 0.0 0.0 0.00 0.01 0.00 94 1018.9
20260831095451 62 257 0.0 0.0 0.00 0.01 0.00 94 1018.9
20260831094937 62 257 0.0 0.0 0.00 0.01 0.00 94 1019.0
20260831094416 62 257 0.0 0.0 0.00 0.01 0.00 94 1018.9
20260831093926 62 257 0.0 0.0 0.00 0.01 0.00 94 1019.0
20260831093424 62 257 0.0 0.0 0.00 0.01 0.00 94 1018.9
20260831092920 62 257 0.0 0.0 0.00 0.01 0.00 94 1018.9
20260831092430 62 257 0.0 0.0 0.00 0.01 0.00 94 1018.9
20260831091916 61 257 0.0 0.0 0.00 0.01 0.00 94 1018.9
20260831091430 61 257 0.0 0.0 0.00 0.01 0.00 94 1018.9
20260831090914 61 257 0.0 0.0 0.00 0.01 0.00 94 1018.9
20260831090433 61 257 0.0 0.0 0.00 0.01 0.00 94 1019.1
20260831085920 61 257 0.0 0.0 0.00 0.01 0.00 94 1019.1
20260831085411 61 257 0.0 0.0 0.00 0.01 0.00 93 1019.0
20260831084918 61 257 0.0 0.0 0.00 0.01 0.00 93 1019.0
20260831084441 61 257 0.0 0.0 0.00 0.01 0.00 93 1019.0
20260831083915 61 257 0.0 0.0 0.00 0.01 0.00 93 1019.1
20260831083424 61 257 0.0 0.0 0.00 0.01 0.00 93 1019.0
20260831083003 61 257 0.0 0.0 0.00 0.01 0.00 93 1019.1
20260831082423 61 257 0.0 0.0 0.00 0.01 0.00 93 1019.2
20260831081914 61 257 0.0 0.0 0.00 0.01 0.00 93 1019.2
20260831081424 60 257 0.0 0.0 0.00 0.01 0.00 93 1019.2
20260831080912 60 257 0.0 0.0 0.00 0.01 0.00 93 1019.1
20260831080438 60 257 0.0 0.0 0.00 0.01 0.00 93 1019.1
20260831075940 60 257 0.0 0.0 0.00 0.01 0.00 92 1019.1
20260831075445 60 257 0.0 0.0 0.00 0.01 0.00 92 1019.0
20260831074939 60 257 0.0 0.0 0.00 0.01 0.00 92 1019.0
20260831074447 60 257 0.0 0.0 0.00 0.01 0.00 92 1019.1
20260831073917 60 257 0.0 0.0 0.00 0.01 0.00 92 1019.1
20260831073425 60 257 0.0 0.0 0.00 0.01 0.00 92 1019.1
20260831072918 60 257 0.0 0.0 0.00 0.01 0.00 92 1019.2
20260831072421 60 257 0.0 0.0 0.00 0.01 0.00 92 1019.1
20260831071937 60 257 0.0 0.0 0.00 0.01 0.00 92 1019.1
20260831071411 60 257 0.0 0.0 0.00 0.01 0.00 92 1019.2
20260831070930 60 257 0.0 0.0 0.00 0.01 0.00 92 1019.2
20260831070414 60 257 0.0 0.0 0.00 0.01 0.00 92 1019.2
20260831065941 60 257 0.0 0.0 0.00 0.01 0.00 92 1019.1
20260831065450 60 257 0.0 0.0 0.00 0.01 0.00 92 1019.1
20260831064910 60 257 0.0 0.0 0.00 0.01 0.00 92 1019.2
20260831064412 60 257 0.0 0.0 0.00 0.01 0.00 92 1019.3
20260831063931 60 257 0.0 0.0 0.00 0.01 0.00 92 1019.3
20260831063432 60 257 0.0 0.0 0.00 0.01 0.00 92 1019.2
20260831062935 60 257 0.0 0.0 0.00 0.01 0.00 92 1019.2
20260831062424 60 257 0.0 0.0 0.00 0.01 0.00 92 1019.2
20260831061914 60 257 0.0 0.0 0.00 0.01 0.00 92 1019.2
20260831061418 60 257 0.0 0.0 0.00 0.01 0.00 92 1019.3
20260831060913 61 257 0.0 0.0 0.00 0.01 0.00 92 1019.3
20260831060417 61 257 0.0 0.0 0.00 0.01 0.00 92 1019.4
20260831055914 61 257 0.0 0.0 0.00 0.01 0.00 92 1019.3
20260831055420 61 257 0.0 0.0 0.00 0.01 0.00 92 1019.2
20260831054935 61 257 0.0 0.0 0.00 0.01 0.00 91 1019.3
20260831054423 61 257 0.0 0.0 0.00 0.01 0.00 91 1019.4
20260831053940 61 257 0.0 0.0 0.00 0.01 0.00 91 1019.4
20260831053433 61 257 0.0 0.0 0.00 0.01 0.00 91 1019.4
20260831052918 61 257 0.0 0.0 0.00 0.01 0.00 91 1019.5
20260831052443 61 257 0.0 0.0 0.00 0.01 0.00 91 1019.5
20260831051915 61 257 0.0 0.0 0.00 0.01 0.00 91 1019.4
20260831051438 61 257 0.0 0.0 0.00 0.01 0.00 91 1019.5
20260831050917 61 257 0.0 0.0 0.00 0.01 0.00 91 1019.5
20260831050419 61 257 0.0 0.0 0.00 0.01 0.00 91 1019.6
20260831045911 61 257 0.0 0.0 0.00 0.01 0.00 91 1019.7